QPF
0.00 0.00 0.00 0.00 0.00 0.00 0.00 0.00 0.00 0.00 0.00 0.00 0.00 0.00 0.00 0.00 0.00 0.00 0.00 0.00 0.01 0.01 0.00 0.01 0.01 0.00 0.00 0.00 0.01 0.01 0.01 0.01 0.01 0.01 0.00 0.01 0.01 0.00 0.00 0.00 0.00 0.00 0.00
0.00 0.00 0.00 0.00 0.00 0.00 0.00 0.00 0.00 0.00 0.00 0.00 0.00 0.00 0.00 0.00 0.00 0.00 0.00 0.00 0.00 0.00 0.01 0.01 0.01 0.01 0.00 0.01 0.01 0.01 0.01 0.01 0.02 0.02 0.01 0.01 0.01 0.00 0.00 0.00 0.00 0.00 0.00
0.00 0.00 0.00 0.00 0.00 0.00 0.00 0.00 0.00 0.00 0.00 0.00 0.00 0.00 0.00 0.00 0.00 0.00 0.00 0.00 0.00 0.00 0.00 0.01 0.01 0.01 0.01 0.01 0.01 0.01 0.01 0.01 0.01 0.01 0.01 0.01 0.01 0.00 0.00 0.01 0.00 0.00 0.00
0.00 0.00 0.00 0.00 0.00 0.00 0.00 0.00 0.00 0.00 0.00 0.00 0.00 0.00 0.00 0.00 0.00 0.00 0.00 0.00 0.00 0.00 0.00 0.00 0.00 0.01 0.01 0.01 0.01 0.01 0.01 0.02 0.02 0.02 0.02 0.01 0.01 0.01 0.01 0.00 0.00 0.00 0.00
0.00 0.01 0.00 0.00 0.00 0.00 0.00 0.00 0.00 0.00 0.00 0.00 0.00 0.00 0.00 0.00 0.00 0.00 0.00 0.00 0.00 0.01 0.01 0.01 0.01 0.01 0.01 0.01 0.01 0.01 0.02 0.02 0.02 0.02 0.01 0.01 0.01 0.01 0.01 0.01 0.01 0.01 0.01
0.00 0.00 0.00 0.00 0.00 0.00 0.00 0.00 0.00 0.00 0.00 0.00 0.00 0.00 0.00 0.00 0.00 0.00 0.00 0.01 0.01 0.01 0.01 0.01 0.01 0.01 0.01 0.01 0.01 0.01 0.01 0.01 0.01 0.01 0.01 0.01 0.01 0.01 0.01 0.01 0.01 0.01 0.01
0.00 0.00 0.00 0.00 0.00 0.00 0.00 0.00 0.00 0.00 0.00 0.00 0.00 0.00 0.00 0.00 0.01 0.00 0.00 0.01 0.01 0.01 0.01 0.00 0.00 0.00 0.01 0.00 0.01 0.01 0.01 0.01 0.01 0.01 0.01 0.01 0.01 0.01 0.01 0.01 0.01 0.01 0.01
0.00 0.00 0.00 0.00 0.00 0.00 0.00 0.00 0.00 0.00 0.00 0.00 0.00 0.00 0.00 0.00 0.01 0.01 0.01 0.00 0.00 0.00 0.00 0.00 0.00 0.00 0.00 0.01 0.00 0.00 0.00 0.01 0.01 0.01 0.01 0.00 0.00 0.00 0.00 0.01 0.01 0.01 0.00
0.00 0.00 0.00 0.00 0.00 0.00 0.00 0.00 0.00 0.00 0.00 0.00 0.00 0.00 0.00 0.00 0.01 0.00 0.00 0.00 0.01 0.01 0.01 0.00 0.00 0.00 0.01 0.01 0.01 0.01 0.01 0.01 0.01 0.01 0.01 0.00 0.00 0.00 0.00 0.00 0.00 0.00 0.01
0.00 0.00 0.00 0.00 0.00 0.00 0.00 0.00 0.00 0.00 0.00 0.00 0.00 0.00 0.00 0.00 0.01 0.01 0.01 0.00 0.01 0.00 0.00 0.00 0.00 0.00 0.01 0.01 0.00 0.00 0.00 0.00 0.00 0.01 0.01 0.00 0.00 0.00 0.00 0.00 0.01 0.01 0.01
0.00 0.00 0.00 0.00 0.00 0.00 0.00 0.00 0.00 0.00 0.00 0.00 0.00 0.00 0.00 0.00 0.01 0.01 0.01 0.00 0.00 0.00 0.00 0.00 0.00 0.01 0.01 0.01 0.01 0.00 0.00 0.00 0.00 0.00 0.00 0.00 0.00 0.00 0.01 0.01 0.01 0.01 0.02
0.00 0.00 0.00 0.00 0.00 0.00 0.00 0.00 0.00 0.00 0.00 0.00 0.00 0.00 0.00 0.00 0.00 0.00 0.00 0.00 0.00 0.00 0.00 0.00 0.00 0.01 0.01 0.01 0.01 0.00 0.01 0.00 0.00 0.00 0.00 0.00 0.00 0.01 0.01 0.01 0.00 0.00 0.01
0.00 0.00 0.00 0.00 0.00 0.00 0.00 0.00 0.00 0.00 0.00 0.00 0.00 0.00 0.00 0.00 0.00 0.01 0.00 0.00 0.00 0.00 0.00 0.00 0.01 0.01 0.01 0.01 0.00 0.01 0.00 0.00 0.00 0.00 0.00 0.00 0.00 0.01 0.01 0.00 0.00 0.00 0.00
0.00 0.00 0.00 0.00 0.00 0.00 0.00 0.00 0.00 0.00 0.00 0.00 0.00 0.00 0.00 0.00 0.00 0.00 0.00 0.00 0.01 0.00 0.00 0.00 0.01 0.01 0.01 0.01 0.01 0.00 0.00 0.00 0.00 0.00 0.00 0.00 0.00 0.00 0.00 0.00 0.00 0.00 0.00
0.00 0.00 0.00 0.00 0.00 0.00 0.00 0.00 0.00 0.00 0.00 0.00 0.00 0.00 0.00 0.00 0.00 0.00 0.00 0.00 0.00 0.01 0.01 0.01 0.01 0.01 0.01 0.00 0.00 0.00 0.00 0.00 0.00 0.00 0.00 0.00 0.00 0.00 0.00 0.00 0.00 0.00 0.00
0.00 0.00 0.00 0.00 0.00 0.00 0.00 0.00 0.00 0.00 0.00 0.00 0.00 0.00 0.00 0.00 0.00 0.00 0.00 0.00 0.01 0.01 0.01 0.01 0.01 0.00 0.00 0.00 0.00 0.00 0.00 0.00 0.00 0.00 0.00 0.00 0.00 0.00 0.00 0.00 0.00 0.00 0.00
0.00 0.00 0.00 0.00 0.00 0.00 0.00 0.00 0.00 0.00 0.00 0.00 0.00 0.00 0.00 0.00 0.00 0.00 0.00 0.01 0.01 0.00 0.00 0.00 0.00 0.00 0.00 0.00 0.00 0.00 0.00 0.00 0.00 0.00 0.00 0.00 0.00 0.00 0.00 0.00 0.00 0.00 0.00
0.00 0.00 0.00 0.00 0.00 0.00 0.00 0.00 0.00 0.00 0.00 0.00 0.00 0.01 0.01 0.01 0.01 0.01 0.01 0.01 0.01 0.01 0.00 0.00 0.00 0.00 0.00 0.00 0.00 0.00 0.00 0.00 0.00 0.00 0.00 0.00 0.00 0.00 0.00 0.00 0.00 0.00 0.00
0.00 0.00 0.00 0.00 0.00 0.00 0.00 0.00 0.00 0.00 0.01 0.01 0.01 0.01 0.01 0.01 0.01 0.01 0.01 0.01 0.01 0.00 0.00 0.00 0.00 0.00 0.00 0.00 0.00 0.00 0.00 0.00 0.00 0.00 0.00 0.00 0.00 0.00 0.00 0.00 0.00 0.00 0.01
0.00 0.01 0.01 0.01 0.00 0.00 0.00 0.00 0.00 0.00 0.01 0.01 0.01 0.01 0.01 0.01 0.01 0.01 0.01 0.01 0.01 0.01 0.00 0.00 0.00 0.00 0.00 0.00 0.00 0.00 0.00 0.00 0.00 0.00 0.00 0.01 0.00 0.00 0.01 0.00 0.01 0.01 0.01
0.01 0.01 0.01 0.01 0.01 0.01 0.01 0.01 0.01 0.01 0.01 0.01 0.01 0.01 0.01 0.01 0.01 0.01 0.00 0.00 0.00 0.00 0.00 0.00 0.00 0.00 0.00 0.00 0.01 0.01 0.01 0.01 0.01 0.01 0.00 0.00 0.00 0.00 0.00 0.01 0.01 0.00 0.00
0.01 0.01 0.01 0.01 0.01 0.02 0.02 0.02 0.02 0.01 0.01 0.01 0.01 0.01 0.01 0.01 0.00 0.00 0.00 0.00 0.00 0.00 0.00 0.00 0.00 0.00 0.00 0.01 0.01 0.01 0.01 0.01 0.00 0.00 0.00 0.00 0.00 0.00 0.01 0.01 0.00 0.00 0.00
0.01 0.01 0.01 0.01 0.01 0.02 0.02 0.02 0.02 0.01 0.01 0.01 0.01 0.01 0.01 0.01 0.00 0.00 0.00 0.00 0.00 0.00 0.00 0.00 0.01 0.01 0.01 0.01 0.01 0.01 0.01 0.01 0.00 0.00 0.00 0.00 0.00 0.00 0.00 0.00 0.00 0.00 0.00
0.01 0.01 0.01 0.01 0.02 0.01 0.01 0.01 0.01 0.01 0.01 0.01 0.01 0.01 0.01 0.00 0.01 0.01 0.01 0.01 0.01 0.01 0.01 0.01 0.01 0.01 0.01 0.01 0.01 0.00 0.00 0.00 0.00 0.00 0.00 0.00 0.00 0.00 0.01 0.01 0.01 0.01 0.01
0.02 0.02 0.02 0.02 0.02 0.01 0.01 0.02 0.02 0.01 0.01 0.01 0.01 0.01 0.01 0.01 0.01 0.01 0.01 0.01 0.01 0.01 0.01 0.01 0.00 0.00 0.00 0.00 0.00 0.00 0.00 0.00 0.00 0.00 0.00 0.00 0.01 0.01 0.01 0.01 0.01 0.01 0.01
0.03 0.03 0.03 0.02 0.02 0.02 0.02 0.02 0.02 0.02 0.02 0.01 0.01 0.02 0.02 0.02 0.02 0.02 0.02 0.01 0.01 0.01 0.01 0.01 0.00 0.00 0.00 0.00 0.00 0.00 0.00 0.00 0.00 0.00 0.00 0.01 0.01 0.01 0.01 0.01 0.01 0.01 0.01
MSLP
999.83 1000.86 1001.87 1002.82 1003.71 1004.54 1005.33 1006.10 1006.88 1007.67 1008.45 1009.23 1009.98 1010.67 1011.29 1011.85 1012.34 1012.79 1013.22 1013.65 1014.09 1014.56 1015.04 1015.52 1015.97 1016.37 1016.71 1016.97 1017.15 1017.27 1017.33 1017.36 1017.38 1017.40 1017.43 1017.47 1017.50 1017.53 1017.54 1017.51 1017.45 1017.35 1017.21
998.83 999.91 1000.95 1001.93 1002.84 1003.69 1004.51 1005.31 1006.12 1006.94 1007.76 1008.56 1009.33 1010.04 1010.68 1011.24 1011.74 1012.20 1012.62 1013.05 1013.49 1013.94 1014.41 1014.87 1015.31 1015.70 1016.04 1016.32 1016.54 1016.71 1016.86 1016.99 1017.11 1017.25 1017.38 1017.52 1017.63 1017.71 1017.74 1017.71 1017.62 1017.47 1017.26
997.85 998.98 1000.07 1001.08 1002.01 1002.88 1003.71 1004.53 1005.35 1006.19 1007.03 1007.86 1008.64 1009.38 1010.04 1010.62 1011.14 1011.61 1012.06 1012.49 1012.94 1013.40 1013.86 1014.32 1014.75 1015.15 1015.50 1015.80 1016.07 1016.30 1016.52 1016.74 1016.96 1017.20 1017.44 1017.65 1017.83 1017.95 1018.00 1017.96 1017.84 1017.64 1017.37
996.93 998.12 999.24 1000.28 1001.22 1002.10 1002.93 1003.76 1004.59 1005.43 1006.29 1007.13 1007.94 1008.70 1009.39 1010.01 1010.56 1011.07 1011.54 1012.01 1012.48 1012.96 1013.43 1013.90 1014.35 1014.76 1015.14 1015.47 1015.77 1016.06 1016.35 1016.64 1016.95 1017.26 1017.57 1017.85 1018.08 1018.23 1018.29 1018.24 1018.10 1017.85 1017.53
996.11 997.34 998.49 999.55 1000.50 1001.38 1002.21 1003.03 1003.86 1004.71 1005.58 1006.44 1007.28 1008.07 1008.79 1009.45 1010.05 1010.60 1011.12 1011.63 1012.13 1012.64 1013.15 1013.65 1014.12 1014.56 1014.96 1015.33 1015.67 1016.01 1016.34 1016.69 1017.06 1017.43 1017.78 1018.11 1018.36 1018.53 1018.59 1018.54 1018.37 1018.10 1017.74
995.41 996.66 997.83 998.89 999.85 1000.72 1001.55 1002.37 1003.21 1004.07 1004.95 1005.84 1006.70 1007.52 1008.29 1009.00 1009.64 1010.24 1010.81 1011.37 1011.92 1012.48 1013.02 1013.56 1014.06 1014.54 1014.98 1015.38 1015.76 1016.12 1016.50 1016.88 1017.27 1017.67 1018.05 1018.38 1018.65 1018.83 1018.89 1018.83 1018.66 1018.37 1017.99
994.84 996.08 997.25 998.31 999.27 1000.15 1000.99 1001.82 1002.68 1003.56 1004.46 1005.37 1006.27 1007.13 1007.93 1008.68 1009.38 1010.03 1010.64 1011.25 1011.85 1012.45 1013.05 1013.62 1014.17 1014.68 1015.15 1015.59 1015.99 1016.38 1016.77 1017.16 1017.56 1017.96 1018.34 1018.68 1018.94 1019.11 1019.17 1019.12 1018.94 1018.66 1018.27
994.39 995.60 996.74 997.80 998.76 999.66 1000.53 1001.39 1002.28 1003.20 1004.13 1005.08 1006.02 1006.91 1007.75 1008.54 1009.28 1009.97 1010.63 1011.28 1011.92 1012.57 1013.20 1013.82 1014.41 1014.96 1015.46 1015.92 1016.35 1016.75 1017.14 1017.53 1017.91 1018.29 1018.65 1018.96 1019.21 1019.37 1019.43 1019.38 1019.21 1018.93 1018.55
994.03 995.18 996.29 997.34 998.32 999.26 1000.17 1001.08 1002.02 1002.99 1003.98 1004.97 1005.94 1006.87 1007.75 1008.56 1009.33 1010.05 1010.75 1011.44 1012.12 1012.80 1013.47 1014.12 1014.75 1015.33 1015.86 1016.34 1016.78 1017.19 1017.57 1017.94 1018.30 1018.64 1018.97 1019.25 1019.47 1019.61 1019.66 1019.61 1019.44 1019.17 1018.80
993.72 994.81 995.89 996.94 997.95 998.93 999.90 1000.89 1001.90 1002.93 1003.97 1005.00 1006.01 1006.97 1007.88 1008.72 1009.51 1010.26 1010.98 1011.69 1012.40 1013.11 1013.82 1014.50 1015.16 1015.77 1016.32 1016.82 1017.27 1017.67 1018.04 1018.38 1018.70 1019.01 1019.28 1019.53 1019.71 1019.83 1019.86 1019.80 1019.64 1019.37 1019.01
993.47 994.50 995.55 996.60 997.64 998.68 999.73 1000.79 1001.87 1002.97 1004.07 1005.15 1006.19 1007.18 1008.10 1008.96 1009.77 1010.54 1011.28 1012.02 1012.75 1013.49 1014.22 1014.94 1015.62 1016.25 1016.83 1017.34 1017.79 1018.18 1018.53 1018.84 1019.13 1019.38 1019.61 1019.80 1019.94 1020.02 1020.03 1019.96 1019.79 1019.52 1019.16
993.30 994.27 995.30 996.36 997.44 998.54 999.66 1000.80 1001.95 1003.10 1004.25 1005.36 1006.43 1007.44 1008.38 1009.25 1010.08 1010.86 1011.63 1012.39 1013.15 1013.91 1014.67 1015.40 1016.11 1016.76 1017.36 1017.88 1018.33 1018.71 1019.04 1019.32 1019.56 1019.76 1019.94 1020.07 1020.16 1020.20 1020.18 1020.08 1019.89 1019.62 1019.25
993.24 994.16 995.18 996.26 997.38 998.53 999.71 1000.91 1002.11 1003.31 1004.49 1005.63 1006.71 1007.72 1008.67 1009.56 1010.40 1011.21 1012.00 1012.78 1013.56 1014.35 1015.13 1015.89 1016.61 1017.28 1017.89 1018.41 1018.86 1019.23 1019.54 1019.78 1019.98 1020.14 1020.26 1020.34 1020.38 1020.37 1020.31 1020.17 1019.97 1019.67 1019.29
993.33 994.23 995.25 996.35 997.51 998.70 999.92 1001.16 1002.39 1003.60 1004.79 1005.93 1007.01 1008.02 1008.98 1009.88 1010.73 1011.56 1012.38 1013.19 1014.00 1014.80 1015.61 1016.38 1017.12 1017.80 1018.40 1018.93 1019.37 1019.72 1020.01 1020.23 1020.39 1020.50 1020.57 1020.60 1020.60 1020.54 1020.43 1020.27 1020.03 1019.71 1019.31
993.60 994.51 995.54 996.66 997.84 999.06 1000.30 1001.55 1002.78 1003.99 1005.16 1006.28 1007.34 1008.35 1009.30 1010.21 1011.08 1011.93 1012.77 1013.60 1014.44 1015.27 1016.08 1016.86 1017.60 1018.28 1018.88 1019.39 1019.82 1020.17 1020.43 1020.62 1020.76 1020.83 1020.87 1020.86 1020.81 1020.71 1020.57 1020.37 1020.10 1019.76 1019.34
994.04 994.98 996.04 997.19 998.39 999.62 1000.86 1002.09 1003.30 1004.48 1005.61 1006.70 1007.74 1008.72 1009.67 1010.58 1011.46 1012.33 1013.19 1014.04 1014.89 1015.72 1016.54 1017.31 1018.04 1018.70 1019.29 1019.79 1020.20 1020.53 1020.78 1020.95 1021.06 1021.12 1021.13 1021.09 1021.02 1020.89 1020.72 1020.50 1020.21 1019.85 1019.41
994.63 995.61 996.71 997.89 999.10 1000.34 1001.56 1002.76 1003.93 1005.06 1006.15 1007.19 1008.19 1009.16 1010.09 1011.00 1011.89 1012.77 1013.64 1014.50 1015.34 1016.17 1016.96 1017.72 1018.42 1019.05 1019.61 1020.09 1020.48 1020.80 1021.04 1021.20 1021.31 1021.36 1021.36 1021.31 1021.22 1021.08 1020.90 1020.66 1020.36 1019.99 1019.54
995.27 996.32 997.46 998.67 999.91 1001.14 1002.34 1003.51 1004.64 1005.71 1006.75 1007.75 1008.71 1009.65 1010.57 1011.47 1012.36 1013.24 1014.11 1014.96 1015.79 1016.60 1017.36 1018.07 1018.73 1019.32 1019.85 1020.30 1020.67 1020.97 1021.20 1021.37 1021.48 1021.54 1021.54 1021.50 1021.42 1021.29 1021.11 1020.87 1020.57 1020.20 1019.74
995.89 997.01 998.21 999.45 1000.71 1001.94 1003.13 1004.27 1005.35 1006.39 1007.38 1008.34 1009.27 1010.19 1011.09 1011.99 1012.87 1013.74 1014.60 1015.43 1016.23 1016.99 1017.70 1018.37 1018.97 1019.52 1020.00 1020.42 1020.77 1021.06 1021.29 1021.47 1021.59 1021.67 1021.69 1021.68 1021.61 1021.50 1021.33 1021.11 1020.82 1020.45 1020.00
996.43 997.61 998.87 1000.15 1001.42 1002.66 1003.84 1004.96 1006.02 1007.02 1007.99 1008.92 1009.84 1010.74 1011.63 1012.52 1013.39 1014.25 1015.08 1015.88 1016.64 1017.35 1018.00 1018.60 1019.15 1019.64 1020.08 1020.46 1020.80 1021.08 1021.32 1021.51 1021.66 1021.76 1021.81 1021.82 1021.79 1021.70 1021.56 1021.36 1021.10 1020.75 1020.31
996.85 998.09 999.39 1000.71 1002.00 1003.24 1004.42 1005.53 1006.58 1007.57 1008.52 1009.45 1010.36 1011.26 1012.15 1013.03 1013.89 1014.73 1015.53 1016.30 1017.00 1017.66 1018.25 1018.79 1019.28 1019.72 1020.12 1020.47 1020.78 1021.06 1021.31 1021.52 1021.68 1021.81 1021.90 1021.94 1021.94 1021.89 1021.78 1021.61 1021.37 1021.05 1020.63
997.17 998.44 999.77 1001.11 1002.41 1003.66 1004.84 1005.95 1007.00 1008.00 1008.95 1009.88 1010.80 1011.70 1012.60 1013.48 1014.34 1015.16 1015.94 1016.66 1017.32 1017.92 1018.46 1018.94 1019.37 1019.76 1020.12 1020.45 1020.75 1021.03 1021.28 1021.50 1021.69 1021.85 1021.96 1022.03 1022.06 1022.03 1021.96 1021.82 1021.61 1021.32 1020.94
997.41 998.70 1000.03 1001.36 1002.67 1003.92 1005.10 1006.21 1007.27 1008.28 1009.25 1010.20 1011.13 1012.05 1012.96 1013.85 1014.70 1015.51 1016.27 1016.96 1017.58 1018.13 1018.62 1019.05 1019.44 1019.80 1020.12 1020.43 1020.72 1020.99 1021.25 1021.48 1021.68 1021.85 1021.99 1022.08 1022.12 1022.12 1022.07 1021.96 1021.79 1021.54 1021.20
997.64 998.91 1000.22 1001.53 1002.82 1004.05 1005.23 1006.35 1007.41 1008.43 1009.42 1010.39 1011.35 1012.30 1013.22 1014.12 1014.98 1015.78 1016.52 1017.19 1017.78 1018.29 1018.75 1019.14 1019.50 1019.82 1020.12 1020.41 1020.69 1020.96 1021.21 1021.45 1021.66 1021.83 1021.98 1022.08 1022.14 1022.15 1022.12 1022.04 1021.90 1021.69 1021.40
997.90 999.13 1000.40 1001.67 1002.92 1004.13 1005.29 1006.40 1007.46 1008.49 1009.51 1010.50 1011.48 1012.45 1013.40 1014.31 1015.18 1015.98 1016.71 1017.36 1017.93 1018.42 1018.85 1019.22 1019.55 1019.84 1020.13 1020.40 1020.67 1020.92 1021.17 1021.40 1021.61 1021.79 1021.93 1022.03 1022.10 1022.12 1022.10 1022.04 1021.93 1021.77 1021.53
998.24 999.41 1000.62 1001.83 1003.03 1004.20 1005.33 1006.42 1007.48 1008.52 1009.55 1010.56 1011.57 1012.56 1013.52 1014.45 1015.32 1016.13 1016.86 1017.50 1018.05 1018.53 1018.93 1019.28 1019.59 1019.87 1020.13 1020.39 1020.64 1020.89 1021.13 1021.35 1021.55 1021.72 1021.85 1021.96 1022.02 1022.05 1022.04 1022.00 1021.92 1021.79 1021.60
Thickness
5694 5693 5691 5688 5686 5682 5679 5676 5673 5669 5665 5661 5657 5652 5647 5642 5637 5632 5627 5621 5615 5609 5602 5596 5591 5584 5577 5571 5564 5557 5550 5543 5538 5534 5526 5520 5513 5507 5501 5495 5489 5482 5476
5690 5688 5687 5685 5681 5678 5676 5673 5669 5665 5662 5658 5653 5648 5644 5639 5634 5629 5623 5617 5611 5605 5598 5592 5586 5579 5572 5566 5558 5552 5545 5538 5532 5526 5519 5512 5505 5499 5492 5486 5480 5473 5466
5684 5682 5680 5678 5676 5675 5673 5669 5665 5661 5657 5653 5649 5644 5640 5635 5630 5625 5619 5613 5607 5601 5594 5588 5582 5575 5568 5560 5553 5546 5539 5532 5525 5518 5511 5504 5497 5490 5483 5477 5470 5463 5457
5676 5676 5675 5674 5673 5671 5668 5664 5661 5657 5653 5648 5645 5640 5636 5631 5625 5620 5614 5608 5602 5596 5589 5583 5577 5570 5563 5555 5548 5541 5533 5525 5517 5509 5502 5495 5488 5481 5473 5466 5460 5453 5447
5668 5669 5670 5669 5667 5664 5661 5659 5655 5652 5648 5644 5639 5635 5630 5625 5621 5615 5609 5602 5596 5589 5583 5577 5570 5564 5558 5551 5543 5535 5526 5518 5509 5501 5493 5486 5479 5471 5464 5457 5450 5444 5438
5661 5662 5662 5660 5659 5657 5655 5652 5649 5645 5642 5638 5634 5629 5625 5621 5616 5610 5604 5596 5589 5582 5576 5569 5563 5556 5550 5543 5537 5529 5521 5512 5503 5494 5486 5478 5471 5463 5456 5447 5438 5431 5426
5653 5653 5653 5653 5651 5650 5648 5645 5642 5639 5635 5632 5628 5624 5619 5615 5610 5604 5597 5590 5583 5576 5569 5562 5555 5549 5542 5534 5528 5520 5513 5505 5498 5489 5479 5471 5463 5457 5448 5439 5429 5419 5413
5642 5643 5644 5644 5643 5641 5639 5637 5635 5632 5628 5625 5621 5617 5612 5608 5602 5596 5589 5582 5575 5569 5562 5556 5548 5541 5534 5526 5519 5511 5503 5495 5489 5481 5473 5465 5457 5448 5439 5430 5420 5410 5402
5632 5634 5635 5636 5634 5632 5631 5629 5627 5623 5620 5617 5613 5609 5604 5599 5594 5588 5580 5573 5566 5560 5554 5548 5541 5534 5527 5520 5511 5502 5494 5486 5478 5471 5464 5455 5447 5439 5430 5419 5409 5400 5392
5623 5625 5626 5627 5626 5625 5623 5621 5618 5615 5612 5608 5603 5600 5596 5591 5586 5580 5573 5566 5558 5551 5544 5538 5533 5526 5519 5512 5503 5494 5485 5477 5469 5461 5453 5445 5436 5427 5419 5409 5399 5389 5380
5612 5613 5614 5615 5616 5616 5613 5611 5608 5605 5601 5597 5593 5590 5586 5582 5577 5571 5565 5559 5552 5543 5536 5529 5523 5517 5511 5503 5495 5487 5479 5470 5460 5451 5442 5434 5425 5416 5407 5398 5389 5379 5369
5601 5602 5603 5604 5605 5604 5603 5600 5597 5594 5590 5586 5582 5577 5574 5571 5568 5563 5557 5552 5545 5536 5529 5521 5515 5508 5501 5494 5486 5479 5470 5461 5451 5441 5432 5423 5414 5406 5397 5388 5379 5369 5360
5589 5591 5592 5593 5593 5594 5593 5590 5587 5584 5581 5577 5573 5569 5564 5560 5558 5554 5548 5542 5535 5528 5521 5514 5507 5500 5492 5484 5477 5469 5460 5451 5441 5432 5423 5414 5405 5396 5387 5378 5368 5359 5350
5578 5579 5581 5581 5582 5582 5582 5581 5579 5576 5573 5569 5565 5561 5556 5551 5547 5543 5537 5530 5524 5517 5510 5503 5496 5489 5481 5474 5466 5458 5450 5441 5433 5423 5414 5404 5395 5387 5377 5368 5358 5348 5338
5566 5568 5569 5571 5571 5571 5570 5571 5570 5569 5568 5564 5561 5556 5550 5545 5541 5536 5530 5522 5515 5508 5500 5491 5483 5476 5469 5462 5455 5447 5439 5431 5422 5413 5404 5395 5386 5377 5367 5358 5348 5338 5328
5556 5558 5559 5560 5560 5560 5558 5556 5556 5556 5556 5554 5552 5548 5543 5539 5532 5526 5520 5514 5507 5500 5491 5482 5475 5468 5461 5453 5445 5437 5429 5421 5413 5404 5395 5386 5377 5367 5358 5348 5339 5329 5320
5548 5549 5550 5550 5550 5549 5548 5547 5544 5541 5542 5541 5540 5537 5534 5529 5523 5517 5511 5504 5498 5491 5482 5475 5467 5460 5453 5445 5437 5429 5421 5412 5404 5395 5386 5377 5368 5359 5349 5340 5331 5322 5314
5539 5540 5541 5541 5540 5540 5539 5538 5536 5534 5530 5527 5526 5525 5522 5518 5513 5507 5501 5494 5486 5480 5474 5467 5460 5452 5445 5437 5429 5421 5412 5403 5395 5386 5377 5368 5359 5350 5341 5332 5324 5316 5309
5529 5531 5531 5531 5530 5530 5529 5527 5525 5523 5521 5517 5513 5512 5510 5506 5501 5496 5491 5486 5480 5473 5466 5459 5452 5445 5437 5429 5421 5413 5404 5396 5387 5378 5370 5360 5351 5342 5333 5325 5317 5312 5303
5518 5521 5522 5521 5521 5520 5519 5517 5515 5513 5510 5507 5506 5503 5498 5493 5489 5484 5481 5477 5472 5466 5458 5451 5444 5437 5430 5422 5413 5405 5396 5388 5379 5371 5362 5353 5344 5336 5327 5319 5312 5305 5298
5508 5510 5511 5511 5511 5511 5510 5508 5506 5504 5502 5500 5497 5495 5492 5487 5482 5477 5473 5468 5463 5458 5451 5444 5437 5429 5422 5414 5406 5398 5389 5381 5373 5365 5356 5347 5338 5330 5322 5315 5307 5300 5294
5497 5499 5500 5502 5502 5501 5500 5498 5497 5495 5493 5490 5486 5484 5482 5477 5473 5469 5464 5460 5455 5450 5444 5437 5430 5422 5415 5408 5400 5392 5383 5375 5367 5359 5350 5341 5332 5325 5317 5310 5303 5296 5291
5487 5489 5490 5490 5491 5491 5489 5488 5487 5486 5484 5481 5478 5475 5471 5468 5465 5461 5456 5451 5446 5440 5434 5429 5422 5415 5408 5401 5394 5387 5379 5371 5363 5354 5345 5336 5328 5320 5313 5306 5299 5293 5287
5478 5479 5480 5481 5481 5481 5480 5479 5478 5476 5474 5471 5469 5466 5463 5460 5456 5452 5448 5442 5437 5431 5426 5421 5415 5408 5401 5394 5387 5380 5373 5366 5357 5349 5341 5332 5324 5317 5309 5302 5296 5290 5284
5469 5470 5471 5471 5472 5472 5471 5470 5469 5467 5465 5463 5460 5458 5454 5451 5447 5443 5438 5434 5428 5423 5417 5412 5407 5401 5394 5387 5381 5374 5366 5359 5351 5343 5335 5327 5320 5312 5306 5298 5292 5286 5281
5460 5461 5461 5461 5461 5462 5462 5461 5460 5459 5457 5454 5452 5449 5446 5443 5438 5434 5429 5425 5419 5414 5409 5404 5399 5393 5387 5380 5373 5367 5360 5352 5345 5338 5330 5323 5315 5308 5301 5295 5288 5283 5277